Location: Eschertshofen
(49.3064°N, 11.5756°E)
Time: 02:09:32
(UTC+00:00)

USA 234 - Pass Details

Date: 18 September 2020
Orbit: 1102 x 1106 km, 123.0° (Epoch: 16 October)

Event Time Altitude Azimuth Distance (km) Brightness Sun altitude
Rises 23:41:26 0° 84° (E) 3,920 6.3 -38.8°
Reaches altitude 10° 23:44:00 10° 79° (E) 2,963 5.7 -38.7°
Maximum altitude 23:50:12 48° 8° (N) 1,421 4.0 -38.5°
Enters shadow 23:50:38 47° 356° (N) 1,433 4.0 -38.5°
Exits shadow 23:54:28 20° 304° (NW) 2,290 5.0 -38.3°
Drops below altitude 10° 23:56:24 10° 297° (WNW) 2,967 5.6 -38.2°
Sets 23:58:58 0° 292° (WNW) 3,926 6.2 -38.1°
